Time,TemperatureF,DewpointF,PressureIn,WindDirection,WindDirectionDegrees,WindSpeedMPH,WindSpeedGustMPH,Humidity,HourlyPrecipIn,Conditions,Clouds,dailyrainin,SoftwareType,DateUTC
2013-05-11 00:06:00,64.6,61.9,29.86,South,180,0.0,-999.0,91,-99.99,,,0.00,Acu-Link.com,2013-05-11 04:06:00,
2013-05-11 00:21:00,64.0,61.9,29.86,SSE,157,0.0,-999.0,93,-99.99,,,0.00,Acu-Link.com,2013-05-11 04:21:00,
2013-05-11 00:37:00,64.0,61.9,29.87,SSE,157,0.0,-999.0,93,-99.99,,,0.00,Acu-Link.com,2013-05-11 04:37:00,
2013-05-11 00:52:00,64.0,62.2,29.86,SSE,157,0.0,-999.0,94,-99.99,,,0.00,Acu-Link.com,2013-05-11 04:52:00,
2013-05-11 01:07:00,64.0,62.2,29.86,SSE,157,0.0,-999.0,94,-99.99,,,0.00,Acu-Link.com,2013-05-11 05:07:00,
2013-05-11 01:23:00,64.4,62.0,29.86,SSE,157,0.0,-999.0,92,-99.99,,,0.00,Acu-Link.com,2013-05-11 05:23:00,
2013-05-11 01:38:00,64.4,61.7,29.86,South,180,0.0,-999.0,91,-99.99,,,0.00,Acu-Link.com,2013-05-11 05:38:00,
2013-05-11 01:53:00,64.4,61.7,29.85,South,180,0.0,-999.0,91,-99.99,,,0.00,Acu-Link.com,2013-05-11 05:53:00,
2013-05-11 02:08:00,64.4,61.4,29.85,SSW,202,0.0,-999.0,90,-99.99,,,0.00,Acu-Link.com,2013-05-11 06:08:00,
2013-05-11 02:24:00,64.4,61.1,29.84,SSW,202,0.0,-999.0,89,-99.99,,,0.00,Acu-Link.com,2013-05-11 06:24:00,
2013-05-11 02:39:00,64.2,60.6,29.83,SSW,202,0.0,-999.0,88,-99.99,,,0.00,Acu-Link.com,2013-05-11 06:39:00,
2013-05-11 02:55:00,64.0,61.0,29.83,SSW,202,0.0,-999.0,90,-99.99,,,0.00,Acu-Link.com,2013-05-11 06:55:00,
2013-05-11 03:10:00,63.7,60.4,29.83,SSW,202,0.0,-999.0,89,-99.99,,,0.00,Acu-Link.com,2013-05-11 07:10:00,
2013-05-11 03:25:00,63.0,60.6,29.83,South,180,0.0,-999.0,92,-99.99,,,0.00,Acu-Link.com,2013-05-11 07:25:00,
2013-05-11 03:40:00,62.8,60.4,29.83,SSW,202,0.0,-999.0,92,-99.99,,,0.00,Acu-Link.com,2013-05-11 07:40:00,
2013-05-11 03:56:00,62.6,60.5,29.83,WNW,292,0.0,-999.0,93,-99.99,,,0.00,Acu-Link.com,2013-05-11 07:56:00,
2013-05-11 04:12:00,62.6,60.8,29.83,SSW,202,0.0,-999.0,94,-99.99,,,0.00,Acu-Link.com,2013-05-11 08:12:00,
2013-05-11 04:27:00,62.6,60.8,29.83,South,180,0.0,-999.0,94,-99.99,,,0.00,Acu-Link.com,2013-05-11 08:27:00,
2013-05-11 04:42:00,62.6,60.8,29.82,SSW,202,0.0,-999.0,94,-99.99,,,0.00,Acu-Link.com,2013-05-11 08:42:00,
2013-05-11 04:57:00,62.4,60.9,29.82,SSE,157,0.0,-999.0,95,-99.99,,,0.00,Acu-Link.com,2013-05-11 08:57:00,
2013-05-11 05:12:00,62.4,60.9,29.82,SSW,202,0.0,-999.0,95,-99.99,,,0.00,Acu-Link.com,2013-05-11 09:12:00,
2013-05-11 05:28:00,61.9,60.5,29.81,SSW,202,0.0,-999.0,95,-99.99,,,0.00,Acu-Link.com,2013-05-11 09:28:00,
2013-05-11 05:43:00,61.9,60.7,29.82,SSW,202,0.0,-999.0,96,-99.99,,,0.00,Acu-Link.com,2013-05-11 09:43:00,
2013-05-11 05:58:00,61.7,60.5,29.82,South,180,0.0,-999.0,96,-99.99,,,0.00,Acu-Link.com,2013-05-11 09:58:00,
2013-05-11 06:13:00,61.7,60.8,29.82,South,180,0.0,-999.0,97,-99.99,,,0.00,Acu-Link.com,2013-05-11 10:13:00,
2013-05-11 06:29:00,61.5,60.6,29.82,SSW,202,0.0,-999.0,97,-99.99,,,0.00,Acu-Link.com,2013-05-11 10:29:00,
2013-05-11 06:44:00,61.3,60.4,29.81,SSW,202,0.0,-999.0,97,-99.99,,,0.00,Acu-Link.com,2013-05-11 10:44:00,
2013-05-11 07:00:00,61.2,60.3,29.82,SSW,202,0.0,-999.0,97,-99.99,,,0.00,Acu-Link.com,2013-05-11 11:00:00,
2013-05-11 07:15:00,61.3,60.4,29.82,South,180,0.0,-999.0,97,-99.99,,,0.00,Acu-Link.com,2013-05-11 11:15:00,
2013-05-11 07:30:00,61.3,60.4,29.82,SSW,202,0.0,-999.0,97,-99.99,,,0.00,Acu-Link.com,2013-05-11 11:30:00,
2013-05-11 07:46:00,62.1,61.5,29.83,SSW,202,0.0,-999.0,98,-99.99,,,0.00,Acu-Link.com,2013-05-11 11:46:00,
2013-05-11 08:01:00,62.6,61.7,29.82,SSW,202,0.0,-999.0,97,-99.99,,,0.00,Acu-Link.com,2013-05-11 12:01:00,
2013-05-11 08:16:00,65.3,62.3,29.82,SSW,202,0.0,-999.0,90,-99.99,,,0.00,Acu-Link.com,2013-05-11 12:16:00,
2013-05-11 08:32:00,68.7,63.3,29.84,ESE,112,0.0,-999.0,83,-99.99,,,0.00,Acu-Link.com,2013-05-11 12:32:00,
2013-05-11 08:47:00,69.6,62.8,29.83,SW,225,0.0,-999.0,79,-99.99,,,0.00,Acu-Link.com,2013-05-11 12:47:00,
2013-05-11 09:03:00,70.7,62.8,29.82,SW,225,0.0,-999.0,76,-99.99,,,0.00,Acu-Link.com,2013-05-11 13:03:00,
2013-05-11 09:18:00,71.2,63.6,29.83,NE,45,1.7,-999.0,77,-99.99,,,0.00,Acu-Link.com,2013-05-11 13:18:00,
2013-05-11 09:33:00,71.1,63.1,29.83,SSE,157,0.0,-999.0,76,-99.99,,,0.00,Acu-Link.com,2013-05-11 13:33:00,
2013-05-11 09:48:00,71.2,63.2,29.84,West,270,0.0,-999.0,76,-99.99,,,0.00,Acu-Link.com,2013-05-11 13:48:00,
2013-05-11 10:04:00,72.1,63.7,29.83,SE,135,0.0,-999.0,75,-99.99,,,0.00,Acu-Link.com,2013-05-11 14:04:00,
2013-05-11 10:19:00,73.0,64.2,29.82,WNW,292,0.0,-999.0,74,-99.99,,,0.00,Acu-Link.com,2013-05-11 14:19:00,
2013-05-11 10:35:00,73.8,64.2,29.82,NE,45,0.0,-999.0,72,-99.99,,,0.00,Acu-Link.com,2013-05-11 14:35:00,
2013-05-11 10:50:00,75.0,64.1,29.83,WNW,292,1.1,-999.0,69,-99.99,,,0.00,Acu-Link.com,2013-05-11 14:50:00,
2013-05-11 11:05:00,76.3,64.1,29.82,East,90,0.0,-999.0,66,-99.99,,,0.00,Acu-Link.com,2013-05-11 15:05:00,
2013-05-11 11:21:00,77.0,64.8,29.81,ENE,67,0.0,-999.0,66,-99.99,,,0.00,Acu-Link.com,2013-05-11 15:21:00,
2013-05-11 11:36:00,77.5,64.3,29.81,NNW,337,0.0,-999.0,64,-99.99,,,0.00,Acu-Link.com,2013-05-11 15:36:00,
2013-05-11 11:51:00,77.9,63.8,29.80,NE,45,0.0,-999.0,62,-99.99,,,0.00,Acu-Link.com,2013-05-11 15:51:00,
2013-05-11 12:07:00,76.3,63.7,29.80,NE,45,1.7,-999.0,65,-99.99,,,0.00,Acu-Link.com,2013-05-11 16:07:00,
2013-05-11 12:22:00,76.5,64.3,29.81,NNE,22,0.0,-999.0,66,-99.99,,,0.00,Acu-Link.com,2013-05-11 16:22:00,
2013-05-11 12:38:00,77.2,65.8,29.81,West,270,0.0,-999.0,68,-99.99,,,0.00,Acu-Link.com,2013-05-11 16:38:00,
2013-05-11 12:53:00,77.0,65.2,29.81,South,180,0.0,-999.0,67,-99.99,,,0.00,Acu-Link.com,2013-05-11 16:53:00,
2013-05-11 13:08:00,77.2,66.2,29.81,SW,225,0.0,-999.0,69,-99.99,,,0.00,Acu-Link.com,2013-05-11 17:08:00,
2013-05-11 13:23:00,75.4,65.7,29.81,NNE,22,1.7,-999.0,72,-99.99,,,0.00,Acu-Link.com,2013-05-11 17:23:00,
2013-05-11 13:39:00,73.8,66.9,29.81,ESE,112,1.7,-999.0,79,-99.99,,,0.00,Acu-Link.com,2013-05-11 17:39:00,
2013-05-11 13:54:00,72.7,66.5,29.80,NNE,22,0.0,-999.0,81,-99.99,,,0.01,Acu-Link.com,2013-05-11 17:54:00,
2013-05-11 14:10:00,72.3,67.9,29.79,South,180,0.0,-999.0,86,-99.99,,,0.01,Acu-Link.com,2013-05-11 18:10:00,
2013-05-11 14:25:00,73.6,67.4,29.80,NW,315,0.0,-999.0,81,-99.99,,,0.01,Acu-Link.com,2013-05-11 18:25:00,
2013-05-11 14:40:00,73.2,67.0,29.79,West,270,0.0,-999.0,81,-99.99,,,0.01,Acu-Link.com,2013-05-11 18:40:00,
2013-05-11 14:56:00,73.2,67.0,29.79,SSE,157,0.0,-999.0,81,-99.99,,,0.01,Acu-Link.com,2013-05-11 18:56:00,
2013-05-11 15:11:00,74.1,67.5,29.79,North,0,0.0,-999.0,80,-99.99,,,0.01,Acu-Link.com,2013-05-11 19:11:00,
2013-05-11 15:26:00,75.0,66.9,29.77,WNW,292,0.0,-999.0,76,-99.99,,,0.01,Acu-Link.com,2013-05-11 19:26:00,
2013-05-11 15:42:00,75.4,67.7,29.76,WNW,292,0.0,-999.0,77,-99.99,,,0.01,Acu-Link.com,2013-05-11 19:42:00,
2013-05-11 15:57:00,75.7,67.2,29.77,West,270,0.0,-999.0,75,-99.99,,,0.01,Acu-Link.com,2013-05-11 19:57:00,
2013-05-11 16:12:00,74.8,66.7,29.76,West,270,1.1,-999.0,76,-99.99,,,0.01,Acu-Link.com,2013-05-11 20:12:00,
2013-05-11 16:28:00,75.6,67.5,29.76,South,180,0.0,-999.0,76,-99.99,,,0.01,Acu-Link.com,2013-05-11 20:28:00,
2013-05-11 16:43:00,75.6,66.3,29.75,WSW,247,0.0,-999.0,73,-99.99,,,0.01,Acu-Link.com,2013-05-11 20:43:00,
2013-05-11 16:59:00,76.5,65.6,29.75,SW,225,1.1,-999.0,69,-99.99,,,0.01,Acu-Link.com,2013-05-11 20:59:00,
2013-05-11 17:14:00,76.5,66.4,29.75,SW,225,0.0,-999.0,71,-99.99,,,0.01,Acu-Link.com,2013-05-11 21:14:00,
2013-05-11 17:30:00,76.5,66.0,29.74,NW,315,0.0,-999.0,70,-99.99,,,0.01,Acu-Link.com,2013-05-11 21:30:00,
2013-05-11 17:45:00,76.3,64.9,29.74,SSE,157,0.0,-999.0,68,-99.99,,,0.01,Acu-Link.com,2013-05-11 21:45:00,
2013-05-11 18:00:00,75.6,64.3,29.72,ESE,112,0.0,-999.0,68,-99.99,,,0.01,Acu-Link.com,2013-05-11 22:00:00,
2013-05-11 18:16:00,74.7,63.8,29.74,NE,45,2.2,-999.0,69,-99.99,,,0.01,Acu-Link.com,2013-05-11 22:16:00,
2013-05-11 18:31:00,74.3,63.5,29.73,SW,225,0.0,-999.0,69,-99.99,,,0.01,Acu-Link.com,2013-05-11 22:31:00,
2013-05-11 18:46:00,73.4,63.8,29.73,SW,225,0.0,-999.0,72,-99.99,,,0.01,Acu-Link.com,2013-05-11 22:46:00,
2013-05-11 19:02:00,73.0,63.4,29.72,SSE,157,0.0,-999.0,72,-99.99,,,0.01,Acu-Link.com,2013-05-11 23:02:00,
2013-05-11 19:17:00,72.9,64.1,29.72,SSW,202,1.1,-999.0,74,-99.99,,,0.01,Acu-Link.com,2013-05-11 23:17:00,
2013-05-11 19:33:00,72.7,63.1,29.73,NNE,22,0.0,-999.0,72,-99.99,,,0.01,Acu-Link.com,2013-05-11 23:33:00,
2013-05-11 19:48:00,72.1,63.7,29.74,South,180,0.0,-999.0,75,-99.99,,,0.01,Acu-Link.com,2013-05-11 23:48:00,
2013-05-11 20:03:00,71.6,63.2,29.73,West,270,0.0,-999.0,75,-99.99,,,0.01,Acu-Link.com,2013-05-12 00:03:00,
2013-05-11 20:18:00,71.2,63.2,29.74,NNW,337,2.2,-999.0,76,-99.99,,,0.01,Acu-Link.com,2013-05-12 00:18:00,
2013-05-11 20:34:00,68.0,63.6,29.77,WSW,247,0.0,-999.0,86,-99.99,,,0.07,Acu-Link.com,2013-05-12 00:34:00,
2013-05-11 20:49:00,65.7,63.6,29.75,SSW,202,0.0,-999.0,93,-99.99,,,0.10,Acu-Link.com,2013-05-12 00:49:00,
2013-05-11 21:04:00,64.4,62.9,29.76,SSE,157,0.0,-999.0,95,-99.99,,,0.11,Acu-Link.com,2013-05-12 01:04:00,
2013-05-11 21:20:00,63.9,62.7,29.76,SSE,157,0.0,-999.0,96,-99.99,,,0.11,Acu-Link.com,2013-05-12 01:20:00,
2013-05-11 21:35:00,63.5,62.6,29.77,South,180,0.0,-999.0,97,-99.99,,,0.11,Acu-Link.com,2013-05-12 01:35:00,
2013-05-11 21:50:00,63.5,63.2,29.77,South,180,0.0,-999.0,99,-99.99,,,0.11,Acu-Link.com,2013-05-12 01:50:00,
2013-05-11 22:06:00,63.3,63.0,29.79,SSW,202,0.0,-999.0,99,-99.99,,,0.11,Acu-Link.com,2013-05-12 02:06:00,
2013-05-11 22:21:00,63.1,62.8,29.79,ESE,112,0.0,-999.0,99,-99.99,,,0.12,Acu-Link.com,2013-05-12 02:21:00,
2013-05-11 22:36:00,62.8,62.5,29.78,SW,225,0.0,-999.0,99,-99.99,,,0.12,Acu-Link.com,2013-05-12 02:36:00,
2013-05-11 22:52:00,62.8,62.5,29.78,SSW,202,0.0,-999.0,99,-99.99,,,0.12,Acu-Link.com,2013-05-12 02:52:00,
2013-05-11 23:07:00,62.8,62.5,29.78,SSW,202,0.0,-999.0,99,-99.99,,,0.12,Acu-Link.com,2013-05-12 03:07:00,
2013-05-11 23:22:00,62.6,62.3,29.78,SSW,202,0.0,-999.0,99,-99.99,,,0.12,Acu-Link.com,2013-05-12 03:22:00,
2013-05-11 23:38:00,62.4,62.1,29.78,SSW,202,0.0,-999.0,99,-99.99,,,0.12,Acu-Link.com,2013-05-12 03:38:00,
2013-05-11 23:53:00,62.4,62.1,29.78,SSW,202,0.0,-999.0,99,-99.99,,,0.12,Acu-Link.com,2013-05-12 03:53:00,